星链-30182 (STARLINK-30182 )

导读

STARLINK-30182是美国太空探索技术公司星链星座的组网卫星,于2023年7月20日发射入轨,属于星链低轨互联网星座的一员。该卫星依托星链系统部署,为全球范围提供宽带互联网服务,尤其覆盖偏远地区等网络基础设施薄弱区域,是星链大规模星座组网进程中的一颗标准卫星,延续了星链星座的技术与服务定位。

基本信息
目录编号:
57412
目录名称:
STARLINK-30182
国际标识:
2023-102J
轨道中心:
EARTH
卫星名称:
星链-30182
卫星全名:
星链-30182 (STARLINK-30182 )
卫星状态:
在轨 (已飞行1149 天)
发射日期:
2023-07-20 UTC
国别 :
美国 (US)
星等 :
--
该卫星已列入 空间交会检测服务 Space Conjunction Data Service (SCDS) ,当前飞行风险评估等级: 无高风险
轨道信息
数据来源 国际轨道数据
星历时间: 2026-09-11T14:00:02+0800
12小时前
查看轨道信息
半长轴: 6734.336km
偏心率: 0.0001949
轨道倾角: 42.999°
近地点辐角 288.413°
升交点赤经 274.498°
平近点角 281.852°
近地点: 354.886km
远地点: 357.512km
周期: 91.665分钟
每日圈数: 15.709438
详细信息
固有亮度:
5
最大亮度:
0.3
卫星平台:
Starlink v2.0 mini
覆盖范围:
全球
运营商:
太空探索技术公司
运营商所在国:
美国
制造商(研发单位):
太空探索技术公司
制造商所在国:
美国
使用方式:
暂无
卫星简介
星链(Starlink)计划是由太空探索技术公司(SpaceX)提出的一个巨型低轨卫星互联网星座项目,计划在2019年至2024年间在太空搭建由约1.2万颗卫星组成的“星链”网络,其中1584颗将部署在地球上空550千米处的近地轨道,并从2020年开始工作。该卫星仍在工作。
2D轨道图
3D轨道图
轨道高度分析图
轨道倾角分析图
轨道综合分析图
查看轨道综合分析图
交会数据列表
事件ID 空间交会对象 最接近时刻(TCA) 交会距离 交会风险概率(CRP) 交会风险指数(CRI) 操作
CDM_260913-163805-741206-998321
2026-09-13T
16:38:43+0000
2.953 km
极远距离
1.341458E-6 低风险 0.38
与全量物体交会距离演化趋势
与全量物体交会风险概率演化趋势